GFSSW_prec_pwat_135.txt.gz
Precipitable_Water
0.59 0.57 0.56 0.54 0.52 0.50 0.50 0.50 0.53 0.51 0.50 0.49 0.48 0.48 0.48 0.45 0.39 0.32 0.16 0.18 0.22 0.45 0.56 0.47 0.49 0.54 0.73 0.79 0.85 0.78 0.46 0.39 0.37 0.38 0.41 0.76 0.70 0.79 0.91 0.81 0.86 0.94 0.79 0.88 1.12
0.58 0.55 0.54 0.53 0.51 0.50 0.49 0.51 0.54 0.53 0.50 0.49 0.47 0.47 0.49 0.46 0.29 0.18 0.20 0.20 0.24 0.39 0.33 0.30 0.42 0.52 0.63 0.68 0.63 0.53 0.43 0.39 0.39 0.40 0.39 0.60 0.70 0.70 0.71 0.70 0.74 0.80 0.92 1.03 1.10
0.57 0.54 0.52 0.52 0.51 0.50 0.49 0.51 0.55 0.55 0.51 0.50 0.48 0.49 0.50 0.46 0.21 0.22 0.36 0.25 0.28 0.34 0.29 0.34 0.47 0.54 0.60 0.54 0.54 0.51 0.40 0.37 0.35 0.36 0.41 0.57 0.64 0.74 0.64 0.62 0.76 0.74 0.82 0.97 1.05
0.57 0.54 0.52 0.51 0.50 0.50 0.49 0.52 0.55 0.54 0.52 0.50 0.49 0.50 0.51 0.39 0.14 0.45 0.50 0.27 0.32 0.29 0.29 0.28 0.42 0.54 0.50 0.45 0.47 0.40 0.42 0.38 0.36 0.32 0.37 0.49 0.62 0.63 0.72 0.76 0.91 0.98 0.97 1.02 1.02
0.57 0.54 0.51 0.50 0.50 0.49 0.49 0.51 0.56 0.53 0.53 0.50 0.51 0.53 0.45 0.28 0.25 0.55 0.44 0.29 0.29 0.26 0.25 0.28 0.44 0.53 0.44 0.43 0.43 0.39 0.39 0.39 0.37 0.32 0.41 0.55 0.57 0.66 0.75 0.95 1.00 1.09 1.07 1.02 1.01
0.57 0.54 0.51 0.49 0.49 0.49 0.48 0.51 0.57 0.54 0.53 0.50 0.51 0.55 0.36 0.25 0.61 0.53 0.31 0.23 0.24 0.23 0.24 0.34 0.50 0.53 0.45 0.40 0.40 0.42 0.40 0.40 0.32 0.36 0.45 0.51 0.59 0.67 0.86 1.03 0.98 1.01 1.03 1.07 1.05
0.56 0.53 0.51 0.48 0.48 0.48 0.48 0.52 0.59 0.58 0.55 0.50 0.52 0.51 0.31 0.32 0.58 0.45 0.32 0.27 0.27 0.24 0.21 0.44 0.55 0.49 0.47 0.39 0.46 0.45 0.40 0.38 0.33 0.37 0.46 0.56 0.47 0.53 0.87 0.98 0.95 0.98 1.08 1.11 1.15
0.54 0.52 0.49 0.48 0.46 0.47 0.47 0.58 0.65 0.57 0.57 0.53 0.56 0.45 0.26 0.57 0.61 0.39 0.33 0.29 0.29 0.27 0.26 0.46 0.53 0.49 0.45 0.44 0.43 0.40 0.39 0.29 0.33 0.36 0.43 0.47 0.33 0.62 0.88 0.90 0.89 0.90 1.07 1.12 1.18
0.52 0.51 0.48 0.46 0.45 0.45 0.49 0.65 0.66 0.59 0.60 0.57 0.49 0.38 0.31 0.61 0.42 0.38 0.32 0.23 0.23 0.24 0.36 0.42 0.46 0.44 0.43 0.35 0.32 0.34 0.26 0.27 0.30 0.37 0.39 0.40 0.36 0.62 0.85 0.88 0.85 0.83 0.97 1.03 1.11
0.50 0.49 0.47 0.45 0.43 0.44 0.54 0.68 0.71 0.69 0.63 0.62 0.48 0.31 0.46 0.32 0.44 0.36 0.34 0.26 0.24 0.27 0.33 0.35 0.33 0.29 0.31 0.31 0.25 0.26 0.27 0.30 0.30 0.33 0.38 0.37 0.38 0.55 0.74 0.83 0.85 0.85 0.93 0.97 0.98
0.48 0.47 0.45 0.43 0.42 0.43 0.59 0.59 0.39 0.36 0.51 0.29 0.20 0.33 0.42 0.43 0.47 0.40 0.42 0.40 0.37 0.33 0.25 0.30 0.23 0.19 0.25 0.35 0.34 0.33 0.30 0.31 0.33 0.35 0.35 0.38 0.40 0.49 0.66 0.78 0.81 0.82 0.82 0.89 0.95
0.46 0.46 0.44 0.41 0.40 0.47 0.60 0.43 0.41 0.43 0.29 0.39 0.34 0.31 0.46 0.43 0.33 0.39 0.46 0.33 0.31 0.24 0.28 0.25 0.21 0.32 0.35 0.36 0.34 0.34 0.31 0.31 0.34 0.36 0.37 0.40 0.41 0.56 0.64 0.70 0.82 0.83 0.80 0.85 0.97
0.45 0.44 0.43 0.39 0.39 0.46 0.41 0.46 0.54 0.51 0.30 0.29 0.36 0.28 0.37 0.42 0.31 0.34 0.40 0.34 0.29 0.26 0.26 0.26 0.28 0.34 0.32 0.32 0.32 0.32 0.31 0.30 0.30 0.37 0.41 0.41 0.39 0.50 0.64 0.74 0.82 0.91 0.87 0.91 0.95
0.43 0.43 0.43 0.37 0.29 0.34 0.38 0.61 0.49 0.53 0.22 0.20 0.25 0.28 0.37 0.37 0.29 0.37 0.43 0.37 0.31 0.28 0.30 0.29 0.31 0.30 0.30 0.31 0.32 0.28 0.34 0.33 0.31 0.30 0.28 0.42 0.27 0.41 0.55 0.60 0.71 0.83 0.84 0.88 0.95
0.42 0.42 0.42 0.41 0.28 0.25 0.47 0.49 0.58 0.47 0.10 0.20 0.25 0.37 0.39 0.31 0.30 0.31 0.44 0.37 0.29 0.29 0.30 0.26 0.27 0.28 0.29 0.30 0.31 0.28 0.34 0.33 0.32 0.30 0.31 0.35 0.29 0.35 0.49 0.48 0.55 0.74 0.83 0.88 1.00
0.40 0.41 0.41 0.36 0.33 0.27 0.38 0.57 0.54 0.24 0.10 0.23 0.26 0.26 0.29 0.31 0.29 0.32 0.35 0.39 0.38 0.30 0.29 0.29 0.32 0.32 0.32 0.33 0.34 0.35 0.33 0.32 0.32 0.28 0.21 0.27 0.27 0.26 0.33 0.38 0.48 0.75 0.88 0.98 1.03
0.39 0.37 0.38 0.36 0.18 0.30 0.39 0.54 0.28 0.17 0.25 0.25 0.21 0.26 0.27 0.26 0.26 0.27 0.26 0.27 0.25 0.22 0.22 0.26 0.26 0.32 0.34 0.31 0.34 0.32 0.29 0.22 0.20 0.20 0.20 0.28 0.25 0.25 0.35 0.42 0.48 0.72 0.86 0.99 1.01
0.38 0.34 0.34 0.32 0.33 0.31 0.30 0.40 0.20 0.20 0.23 0.31 0.28 0.25 0.23 0.27 0.27 0.25 0.26 0.24 0.29 0.26 0.23 0.21 0.19 0.27 0.32 0.31 0.29 0.30 0.30 0.23 0.18 0.18 0.21 0.28 0.20 0.27 0.43 0.53 0.57 0.73 0.91 1.05 1.02
0.40 0.28 0.29 0.32 0.35 0.31 0.30 0.25 0.23 0.23 0.30 0.28 0.30 0.25 0.24 0.27 0.28 0.26 0.25 0.24 0.27 0.27 0.21 0.21 0.21 0.30 0.32 0.33 0.33 0.31 0.28 0.36 0.28 0.28 0.22 0.23 0.26 0.30 0.43 0.50 0.53 0.68 0.82 0.95 0.97
0.32 0.26 0.22 0.40 0.40 0.25 0.25 0.22 0.25 0.33 0.34 0.31 0.27 0.27 0.24 0.25 0.25 0.26 0.24 0.26 0.25 0.29 0.29 0.24 0.21 0.28 0.31 0.34 0.35 0.33 0.37 0.28 0.29 0.20 0.18 0.20 0.21 0.21 0.32 0.42 0.56 0.63 0.73 0.89 0.93
0.28 0.18 0.36 0.47 0.32 0.19 0.18 0.20 0.24 0.33 0.37 0.29 0.31 0.30 0.29 0.26 0.26 0.25 0.25 0.27 0.28 0.27 0.28 0.28 0.27 0.28 0.33 0.30 0.29 0.31 0.31 0.33 0.32 0.29 0.22 0.19 0.22 0.34 0.33 0.39 0.47 0.59 0.73 0.85 0.88
0.32 0.16 0.43 0.45 0.18 0.19 0.16 0.22 0.26 0.25 0.32 0.32 0.33 0.35 0.32 0.31 0.28 0.26 0.24 0.27 0.31 0.30 0.25 0.29 0.27 0.24 0.29 0.37 0.39 0.36 0.34 0.34 0.28 0.28 0.30 0.27 0.24 0.38 0.40 0.42 0.49 0.54 0.64 0.81 0.89
0.31 0.24 0.49 0.45 0.18 0.17 0.22 0.19 0.23 0.22 0.24 0.27 0.30 0.36 0.37 0.33 0.28 0.30 0.29 0.36 0.38 0.33 0.30 0.31 0.26 0.23 0.26 0.32 0.37 0.34 0.36 0.38 0.38 0.36 0.29 0.26 0.27 0.42 0.47 0.47 0.52 0.56 0.65 0.78 0.88
0.38 0.26 0.42 0.41 0.39 0.27 0.21 0.20 0.19 0.26 0.22 0.23 0.28 0.36 0.36 0.33 0.35 0.31 0.33 0.38 0.41 0.40 0.41 0.37 0.29 0.25 0.21 0.24 0.32 0.30 0.34 0.37 0.36 0.30 0.32 0.30 0.33 0.39 0.42 0.46 0.54 0.61 0.72 0.82 0.90
0.50 0.38 0.46 0.32 0.33 0.34 0.32 0.28 0.23 0.22 0.27 0.27 0.24 0.29 0.35 0.32 0.34 0.33 0.37 0.38 0.43 0.46 0.42 0.39 0.29 0.30 0.30 0.30 0.31 0.31 0.32 0.35 0.35 0.38 0.33 0.36 0.35 0.39 0.40 0.40 0.46 0.63 0.75 0.85 0.90
0.42 0.44 0.46 0.43 0.43 0.35 0.33 0.31 0.28 0.30 0.29 0.25 0.24 0.25 0.32 0.32 0.35 0.34 0.38 0.40 0.38 0.42 0.41 0.42 0.34 0.36 0.32 0.35 0.35 0.32 0.36 0.37 0.37 0.37 0.38 0.38 0.36 0.44 0.42 0.43 0.45 0.50 0.57 0.70 0.82
0.45 0.55 0.49 0.42 0.43 0.36 0.34 0.33 0.33 0.37 0.37 0.38 0.36 0.31 0.29 0.36 0.41 0.42 0.46 0.46 0.46 0.42 0.41 0.42 0.39 0.36 0.31 0.38 0.37 0.31 0.35 0.36 0.39 0.41 0.41 0.34 0.39 0.37 0.35 0.39 0.39 0.41 0.45 0.55 0.71

GFSSW_prec_pwat_138.txt.gz
Precipitable_Water
0.58 0.55 0.53 0.52 0.51 0.51 0.49 0.49 0.51 0.54 0.54 0.50 0.49 0.47 0.48 0.48 0.42 0.35 0.23 0.25 0.27 0.48 0.56 0.50 0.47 0.62 0.74 0.84 0.79 0.72 0.48 0.39 0.37 0.39 0.50 0.76 0.64 0.75 0.90 0.86 0.95 0.94 0.81 0.99 1.16
0.58 0.56 0.53 0.52 0.52 0.51 0.49 0.49 0.52 0.56 0.54 0.50 0.49 0.47 0.48 0.47 0.33 0.21 0.23 0.22 0.25 0.45 0.42 0.41 0.45 0.55 0.71 0.66 0.64 0.56 0.44 0.40 0.36 0.40 0.44 0.66 0.69 0.68 0.76 0.82 0.79 0.79 0.95 1.07 1.11
0.58 0.56 0.53 0.51 0.51 0.51 0.50 0.49 0.52 0.56 0.53 0.50 0.47 0.46 0.50 0.50 0.24 0.20 0.33 0.23 0.28 0.41 0.34 0.37 0.50 0.55 0.62 0.57 0.54 0.52 0.43 0.40 0.35 0.35 0.49 0.59 0.69 0.81 0.81 0.75 0.82 0.73 0.85 1.03 1.10
0.58 0.56 0.54 0.51 0.50 0.50 0.49 0.49 0.51 0.55 0.52 0.51 0.48 0.48 0.50 0.40 0.21 0.49 0.45 0.25 0.30 0.35 0.27 0.30 0.41 0.56 0.51 0.48 0.52 0.46 0.42 0.36 0.35 0.35 0.42 0.60 0.70 0.73 0.82 0.79 0.98 0.93 0.97 1.01 1.05
0.56 0.55 0.54 0.51 0.49 0.48 0.49 0.49 0.52 0.57 0.52 0.53 0.49 0.50 0.44 0.29 0.27 0.56 0.45 0.31 0.31 0.26 0.24 0.26 0.39 0.57 0.47 0.48 0.46 0.40 0.38 0.39 0.34 0.35 0.43 0.63 0.66 0.72 0.83 0.98 0.98 1.01 1.00 0.98 1.05
0.55 0.54 0.53 0.51 0.48 0.47 0.48 0.49 0.55 0.60 0.54 0.52 0.49 0.53 0.43 0.26 0.61 0.49 0.36 0.28 0.25 0.25 0.25 0.33 0.48 0.59 0.48 0.46 0.43 0.41 0.39 0.39 0.30 0.39 0.49 0.60 0.68 0.76 0.90 1.03 0.98 0.97 0.97 0.99 1.04
0.53 0.52 0.51 0.50 0.48 0.46 0.47 0.50 0.62 0.61 0.54 0.51 0.50 0.51 0.35 0.36 0.58 0.38 0.25 0.22 0.26 0.26 0.24 0.43 0.52 0.54 0.51 0.44 0.48 0.43 0.39 0.34 0.32 0.41 0.49 0.63 0.58 0.72 0.92 0.99 0.93 0.98 0.97 0.99 1.08
0.53 0.51 0.50 0.49 0.47 0.44 0.46 0.54 0.65 0.57 0.55 0.53 0.54 0.47 0.28 0.52 0.61 0.35 0.30 0.26 0.27 0.27 0.26 0.45 0.53 0.53 0.49 0.48 0.43 0.38 0.37 0.34 0.32 0.39 0.48 0.59 0.49 0.71 0.95 0.93 0.87 0.98 1.04 1.04 1.09
0.51 0.50 0.48 0.47 0.46 0.43 0.45 0.60 0.66 0.64 0.58 0.57 0.49 0.41 0.31 0.61 0.43 0.36 0.33 0.25 0.26 0.27 0.32 0.43 0.46 0.46 0.45 0.39 0.32 0.33 0.32 0.31 0.30 0.38 0.41 0.50 0.48 0.71 0.93 0.95 0.87 0.93 1.03 1.07 1.12
0.49 0.49 0.47 0.45 0.45 0.42 0.46 0.66 0.69 0.70 0.64 0.61 0.47 0.31 0.42 0.38 0.43 0.35 0.33 0.27 0.20 0.24 0.30 0.32 0.35 0.36 0.38 0.34 0.27 0.28 0.28 0.29 0.31 0.33 0.38 0.40 0.44 0.66 0.84 0.91 0.90 0.88 0.98 1.03 1.10
0.47 0.47 0.46 0.44 0.43 0.41 0.48 0.61 0.46 0.43 0.51 0.34 0.24 0.32 0.43 0.46 0.40 0.31 0.29 0.27 0.23 0.25 0.24 0.29 0.24 0.24 0.31 0.33 0.38 0.33 0.31 0.31 0.34 0.37 0.36 0.37 0.39 0.60 0.76 0.87 0.90 0.85 0.91 0.98 1.10
0.46 0.46 0.45 0.43 0.40 0.44 0.51 0.45 0.43 0.42 0.31 0.41 0.36 0.31 0.47 0.45 0.31 0.31 0.37 0.29 0.27 0.22 0.28 0.25 0.20 0.26 0.30 0.33 0.35 0.33 0.32 0.33 0.36 0.36 0.35 0.37 0.41 0.57 0.70 0.77 0.89 0.86 0.85 0.94 1.06
0.45 0.45 0.44 0.41 0.39 0.44 0.33 0.39 0.56 0.48 0.32 0.33 0.36 0.29 0.40 0.40 0.31 0.32 0.37 0.36 0.28 0.27 0.25 0.23 0.28 0.33 0.29 0.33 0.31 0.33 0.33 0.33 0.34 0.36 0.37 0.41 0.39 0.50 0.65 0.74 0.85 0.93 0.87 0.91 0.95
0.45 0.44 0.44 0.38 0.33 0.32 0.31 0.56 0.51 0.50 0.24 0.24 0.25 0.31 0.36 0.40 0.31 0.42 0.40 0.33 0.31 0.27 0.28 0.29 0.32 0.28 0.28 0.30 0.33 0.32 0.36 0.34 0.34 0.33 0.31 0.39 0.31 0.42 0.50 0.61 0.70 0.83 0.89 0.84 0.93
0.45 0.44 0.44 0.44 0.29 0.25 0.41 0.50 0.56 0.47 0.13 0.24 0.26 0.40 0.36 0.31 0.33 0.33 0.43 0.37 0.30 0.30 0.30 0.28 0.28 0.28 0.29 0.31 0.33 0.36 0.35 0.34 0.33 0.30 0.32 0.35 0.29 0.46 0.49 0.48 0.57 0.74 0.89 0.88 0.88
0.44 0.43 0.43 0.39 0.37 0.29 0.36 0.46 0.53 0.26 0.14 0.21 0.26 0.24 0.27 0.30 0.30 0.33 0.35 0.41 0.40 0.33 0.32 0.31 0.31 0.31 0.33 0.35 0.33 0.36 0.34 0.33 0.32 0.30 0.25 0.32 0.33 0.31 0.38 0.42 0.49 0.67 0.88 0.92 0.98
0.44 0.40 0.41 0.37 0.23 0.30 0.34 0.50 0.29 0.21 0.27 0.22 0.21 0.24 0.24 0.25 0.26 0.27 0.27 0.28 0.25 0.22 0.23 0.27 0.27 0.31 0.36 0.31 0.34 0.33 0.31 0.27 0.25 0.25 0.24 0.35 0.24 0.24 0.37 0.40 0.44 0.50 0.84 0.98 1.05
0.44 0.38 0.37 0.33 0.36 0.33 0.28 0.40 0.23 0.25 0.22 0.30 0.26 0.24 0.22 0.27 0.25 0.26 0.26 0.25 0.30 0.27 0.26 0.23 0.21 0.28 0.33 0.32 0.30 0.29 0.30 0.27 0.24 0.24 0.27 0.35 0.23 0.33 0.40 0.42 0.51 0.56 0.71 0.98 1.06
0.42 0.34 0.31 0.35 0.37 0.32 0.22 0.27 0.26 0.28 0.28 0.28 0.28 0.22 0.23 0.29 0.27 0.24 0.25 0.25 0.28 0.28 0.25 0.24 0.25 0.32 0.32 0.35 0.35 0.32 0.26 0.35 0.32 0.31 0.23 0.29 0.31 0.33 0.39 0.46 0.51 0.55 0.72 0.89 1.05
0.37 0.29 0.27 0.38 0.43 0.25 0.20 0.23 0.31 0.35 0.33 0.28 0.25 0.27 0.22 0.26 0.25 0.26 0.23 0.27 0.28 0.31 0.31 0.29 0.25 0.30 0.32 0.34 0.35 0.34 0.39 0.28 0.29 0.26 0.23 0.28 0.28 0.26 0.33 0.38 0.50 0.59 0.73 0.92 1.09
0.41 0.23 0.38 0.47 0.35 0.21 0.16 0.20 0.29 0.36 0.36 0.30 0.30 0.32 0.29 0.26 0.25 0.25 0.25 0.27 0.30 0.29 0.32 0.30 0.26 0.31 0.30 0.27 0.27 0.29 0.28 0.30 0.35 0.33 0.25 0.25 0.29 0.36 0.35 0.36 0.41 0.50 0.64 0.83 1.01
0.42 0.26 0.42 0.50 0.20 0.16 0.16 0.21 0.28 0.29 0.33 0.33 0.32 0.35 0.32 0.32 0.27 0.26 0.26 0.28 0.29 0.30 0.26 0.30 0.27 0.30 0.24 0.36 0.37 0.36 0.33 0.35 0.28 0.32 0.30 0.29 0.28 0.42 0.41 0.44 0.48 0.49 0.57 0.70 0.92
0.41 0.34 0.48 0.44 0.21 0.18 0.19 0.20 0.28 0.24 0.26 0.28 0.30 0.34 0.39 0.34 0.30 0.31 0.31 0.35 0.32 0.30 0.28 0.30 0.25 0.25 0.30 0.32 0.35 0.31 0.34 0.37 0.39 0.40 0.33 0.29 0.30 0.51 0.48 0.47 0.51 0.54 0.64 0.73 0.86
0.44 0.39 0.42 0.38 0.37 0.32 0.18 0.20 0.20 0.23 0.24 0.26 0.28 0.35 0.38 0.36 0.39 0.34 0.32 0.37 0.35 0.34 0.37 0.36 0.27 0.26 0.25 0.28 0.32 0.32 0.33 0.36 0.36 0.32 0.32 0.35 0.35 0.47 0.48 0.46 0.53 0.54 0.62 0.76 0.86
0.44 0.47 0.56 0.37 0.32 0.34 0.35 0.26 0.21 0.20 0.25 0.26 0.23 0.27 0.34 0.36 0.36 0.36 0.37 0.41 0.40 0.42 0.37 0.36 0.31 0.33 0.31 0.33 0.33 0.33 0.33 0.33 0.32 0.33 0.30 0.35 0.37 0.45 0.48 0.45 0.48 0.49 0.57 0.69 0.80
0.35 0.40 0.52 0.48 0.47 0.40 0.36 0.30 0.28 0.24 0.30 0.24 0.23 0.24 0.28 0.37 0.40 0.38 0.42 0.41 0.38 0.42 0.41 0.42 0.37 0.39 0.32 0.34 0.31 0.28 0.31 0.34 0.36 0.35 0.36 0.39 0.37 0.49 0.51 0.49 0.44 0.43 0.46 0.54 0.67
0.45 0.46 0.43 0.47 0.45 0.40 0.35 0.34 0.33 0.38 0.37 0.38 0.37 0.34 0.30 0.36 0.48 0.51 0.52 0.53 0.53 0.44 0.43 0.41 0.42 0.37 0.31 0.39 0.36 0.30 0.34 0.35 0.38 0.41 0.40 0.37 0.43 0.52 0.46 0.44 0.44 0.45 0.49 0.51 0.57

GFSSW_prec_pwat_141.txt.gz
Precipitable_Water
0.57 0.55 0.53 0.53 0.52 0.50 0.50 0.49 0.49 0.50 0.54 0.52 0.48 0.46 0.45 0.48 0.46 0.39 0.29 0.33 0.34 0.43 0.56 0.53 0.57 0.76 0.84 0.79 0.70 0.79 0.55 0.37 0.40 0.51 0.62 0.72 0.62 0.77 0.92 0.88 0.95 0.83 0.91 1.09 1.29
0.57 0.55 0.54 0.53 0.52 0.51 0.50 0.49 0.50 0.51 0.55 0.53 0.49 0.45 0.44 0.46 0.33 0.25 0.31 0.28 0.29 0.40 0.46 0.41 0.48 0.56 0.70 0.72 0.66 0.65 0.47 0.36 0.38 0.49 0.62 0.68 0.68 0.81 0.74 0.75 0.75 0.81 0.97 1.10 1.21
0.57 0.56 0.54 0.52 0.51 0.50 0.50 0.49 0.49 0.51 0.54 0.51 0.48 0.45 0.46 0.48 0.26 0.23 0.34 0.24 0.22 0.37 0.49 0.46 0.53 0.59 0.68 0.62 0.57 0.59 0.42 0.38 0.34 0.48 0.63 0.66 0.77 0.94 0.89 0.80 0.75 0.76 0.87 1.05 1.15
0.57 0.56 0.54 0.52 0.50 0.49 0.50 0.50 0.49 0.52 0.53 0.52 0.49 0.47 0.50 0.42 0.32 0.58 0.40 0.26 0.23 0.38 0.43 0.34 0.47 0.56 0.58 0.51 0.55 0.49 0.40 0.38 0.35 0.44 0.63 0.69 0.77 0.72 0.79 0.92 0.90 0.95 0.98 1.05 1.10
0.55 0.54 0.53 0.52 0.50 0.47 0.48 0.49 0.50 0.55 0.54 0.53 0.50 0.49 0.43 0.27 0.38 0.60 0.40 0.24 0.25 0.38 0.26 0.31 0.41 0.58 0.51 0.48 0.47 0.45 0.38 0.38 0.36 0.38 0.65 0.66 0.69 0.77 0.83 0.84 0.96 0.97 1.02 1.07 1.12
0.54 0.53 0.52 0.51 0.50 0.46 0.46 0.48 0.53 0.61 0.57 0.53 0.49 0.51 0.41 0.31 0.62 0.51 0.33 0.23 0.26 0.30 0.25 0.30 0.42 0.63 0.53 0.49 0.50 0.40 0.40 0.35 0.33 0.41 0.56 0.66 0.67 0.74 0.88 0.94 0.89 0.92 0.96 1.06 1.11
0.52 0.52 0.51 0.50 0.49 0.45 0.45 0.47 0.58 0.64 0.56 0.52 0.49 0.49 0.42 0.44 0.56 0.38 0.31 0.25 0.26 0.26 0.25 0.31 0.56 0.58 0.51 0.46 0.47 0.40 0.40 0.33 0.34 0.44 0.56 0.68 0.67 0.77 0.88 0.95 0.86 0.91 0.94 1.02 1.08
0.51 0.50 0.50 0.48 0.47 0.45 0.43 0.47 0.61 0.63 0.55 0.52 0.53 0.49 0.40 0.49 0.53 0.28 0.24 0.23 0.27 0.31 0.28 0.42 0.58 0.58 0.54 0.52 0.42 0.39 0.43 0.31 0.33 0.45 0.49 0.72 0.71 0.79 0.92 0.95 0.89 0.93 0.93 0.95 1.06
0.49 0.48 0.48 0.48 0.46 0.43 0.41 0.47 0.63 0.66 0.59 0.57 0.47 0.44 0.34 0.53 0.41 0.30 0.27 0.22 0.23 0.26 0.30 0.45 0.45 0.50 0.50 0.41 0.39 0.34 0.34 0.40 0.34 0.43 0.43 0.64 0.77 0.81 0.91 0.98 0.92 0.98 0.95 0.94 1.02
0.49 0.47 0.46 0.46 0.45 0.43 0.39 0.53 0.69 0.66 0.63 0.59 0.49 0.40 0.44 0.38 0.43 0.32 0.32 0.27 0.23 0.23 0.27 0.31 0.34 0.40 0.41 0.41 0.35 0.32 0.39 0.34 0.31 0.34 0.40 0.46 0.73 0.75 0.84 0.96 0.90 0.99 0.99 1.03 1.00
0.49 0.46 0.44 0.43 0.43 0.42 0.39 0.56 0.54 0.50 0.53 0.37 0.32 0.29 0.45 0.50 0.45 0.30 0.30 0.26 0.22 0.22 0.20 0.26 0.24 0.27 0.37 0.39 0.41 0.40 0.33 0.31 0.36 0.37 0.36 0.43 0.62 0.69 0.80 0.94 0.89 0.93 0.92 0.98 1.11
0.48 0.46 0.43 0.41 0.41 0.42 0.45 0.45 0.49 0.47 0.35 0.44 0.42 0.28 0.51 0.48 0.30 0.29 0.29 0.21 0.19 0.18 0.25 0.26 0.22 0.28 0.35 0.38 0.35 0.36 0.30 0.31 0.37 0.38 0.36 0.40 0.41 0.73 0.73 0.88 0.93 0.86 0.91 0.98 1.11
0.47 0.46 0.42 0.39 0.38 0.45 0.39 0.35 0.51 0.48 0.31 0.32 0.38 0.33 0.36 0.43 0.30 0.26 0.24 0.27 0.20 0.20 0.24 0.27 0.25 0.28 0.27 0.28 0.27 0.32 0.33 0.39 0.36 0.35 0.35 0.38 0.39 0.51 0.68 0.73 1.00 0.94 0.94 0.99 1.06
0.46 0.45 0.43 0.37 0.35 0.38 0.29 0.50 0.54 0.47 0.24 0.24 0.31 0.32 0.33 0.40 0.31 0.34 0.29 0.32 0.29 0.24 0.28 0.27 0.34 0.30 0.27 0.26 0.32 0.32 0.38 0.40 0.36 0.34 0.31 0.35 0.33 0.45 0.58 0.67 0.69 0.92 0.93 0.97 1.06
0.46 0.44 0.43 0.44 0.30 0.26 0.38 0.49 0.48 0.48 0.15 0.22 0.28 0.34 0.31 0.33 0.33 0.33 0.35 0.36 0.30 0.29 0.31 0.25 0.33 0.28 0.26 0.31 0.34 0.39 0.41 0.32 0.35 0.34 0.39 0.43 0.33 0.41 0.59 0.63 0.66 0.73 0.93 0.97 1.04
0.45 0.44 0.43 0.37 0.43 0.31 0.35 0.45 0.50 0.27 0.14 0.27 0.32 0.25 0.26 0.32 0.34 0.37 0.33 0.38 0.37 0.31 0.32 0.34 0.38 0.31 0.30 0.34 0.34 0.42 0.37 0.33 0.33 0.30 0.27 0.31 0.36 0.35 0.51 0.53 0.55 0.73 0.86 0.98 0.98
0.44 0.41 0.41 0.39 0.27 0.34 0.32 0.41 0.29 0.22 0.25 0.25 0.25 0.25 0.22 0.26 0.30 0.32 0.30 0.28 0.27 0.26 0.26 0.32 0.29 0.31 0.34 0.34 0.35 0.35 0.29 0.28 0.28 0.26 0.25 0.36 0.33 0.37 0.38 0.49 0.54 0.56 0.75 1.03 1.06
0.44 0.39 0.40 0.37 0.35 0.32 0.30 0.32 0.24 0.27 0.29 0.31 0.29 0.23 0.20 0.26 0.27 0.29 0.28 0.26 0.31 0.29 0.28 0.25 0.23 0.26 0.31 0.33 0.30 0.29 0.32 0.30 0.32 0.30 0.34 0.40 0.29 0.27 0.41 0.47 0.46 0.49 0.55 0.85 1.07
0.48 0.36 0.35 0.36 0.36 0.35 0.24 0.21 0.25 0.30 0.32 0.31 0.31 0.23 0.21 0.25 0.27 0.28 0.26 0.25 0.29 0.30 0.25 0.27 0.26 0.32 0.32 0.34 0.37 0.33 0.28 0.37 0.33 0.36 0.35 0.37 0.39 0.38 0.36 0.37 0.51 0.57 0.55 0.54 0.94
0.47 0.38 0.30 0.42 0.42 0.29 0.21 0.16 0.26 0.38 0.38 0.35 0.27 0.27 0.23 0.22 0.25 0.26 0.26 0.29 0.30 0.30 0.33 0.36 0.29 0.34 0.32 0.34 0.36 0.38 0.41 0.28 0.30 0.27 0.31 0.33 0.34 0.35 0.42 0.45 0.53 0.53 0.63 0.75 1.01
0.54 0.35 0.42 0.44 0.42 0.23 0.16 0.16 0.20 0.39 0.45 0.36 0.30 0.32 0.28 0.25 0.29 0.28 0.26 0.29 0.31 0.31 0.32 0.34 0.32 0.33 0.33 0.28 0.29 0.29 0.33 0.35 0.35 0.37 0.31 0.33 0.36 0.48 0.43 0.40 0.43 0.48 0.63 0.79 1.03
0.44 0.36 0.51 0.49 0.25 0.19 0.16 0.18 0.22 0.25 0.43 0.39 0.38 0.34 0.39 0.31 0.30 0.31 0.30 0.29 0.33 0.33 0.28 0.29 0.32 0.33 0.32 0.35 0.32 0.34 0.31 0.30 0.27 0.31 0.36 0.31 0.38 0.51 0.51 0.47 0.44 0.50 0.55 0.61 0.86
0.36 0.41 0.52 0.50 0.22 0.19 0.19 0.19 0.20 0.23 0.29 0.33 0.30 0.33 0.41 0.39 0.33 0.33 0.32 0.36 0.35 0.31 0.32 0.32 0.28 0.25 0.34 0.35 0.34 0.30 0.37 0.35 0.36 0.38 0.38 0.41 0.40 0.58 0.56 0.52 0.52 0.48 0.57 0.66 0.69
0.39 0.33 0.40 0.48 0.38 0.30 0.25 0.18 0.18 0.22 0.29 0.29 0.29 0.34 0.33 0.37 0.41 0.39 0.32 0.36 0.38 0.31 0.35 0.36 0.30 0.27 0.26 0.35 0.36 0.29 0.31 0.36 0.37 0.37 0.37 0.38 0.39 0.53 0.56 0.55 0.54 0.56 0.59 0.65 0.74
0.41 0.35 0.56 0.47 0.37 0.29 0.34 0.30 0.22 0.21 0.26 0.28 0.26 0.29 0.32 0.36 0.38 0.38 0.41 0.39 0.37 0.35 0.34 0.32 0.28 0.31 0.31 0.39 0.39 0.35 0.35 0.34 0.35 0.36 0.35 0.39 0.41 0.50 0.68 0.65 0.58 0.53 0.57 0.63 0.71
0.40 0.47 0.52 0.54 0.60 0.48 0.33 0.34 0.27 0.23 0.24 0.23 0.23 0.27 0.30 0.36 0.44 0.41 0.44 0.43 0.39 0.38 0.34 0.35 0.33 0.34 0.32 0.34 0.36 0.34 0.38 0.40 0.37 0.37 0.36 0.37 0.37 0.54 0.64 0.64 0.53 0.51 0.54 0.55 0.58
0.56 0.49 0.42 0.34 0.41 0.47 0.44 0.41 0.35 0.36 0.28 0.30 0.32 0.29 0.24 0.29 0.46 0.60 0.56 0.52 0.52 0.45 0.38 0.36 0.33 0.37 0.33 0.40 0.37 0.33 0.34 0.32 0.33 0.36 0.39 0.36 0.43 0.53 0.60 0.55 0.51 0.54 0.56 0.54 0.54

GFSSW_prec_pwat_144.txt.gz
Precipitable_Water
0.58 0.55 0.55 0.53 0.53 0.51 0.49 0.49 0.48 0.48 0.49 0.52 0.52 0.48 0.47 0.48 0.49 0.40 0.28 0.36 0.40 0.43 0.46 0.63 0.64 0.74 0.76 0.82 0.84 0.78 0.58 0.38 0.46 0.62 0.63 0.67 0.65 0.76 0.88 0.88 0.82 0.96 0.96 1.28 1.43
0.58 0.56 0.54 0.53 0.52 0.51 0.49 0.49 0.48 0.48 0.51 0.52 0.50 0.48 0.45 0.45 0.33 0.26 0.34 0.34 0.36 0.36 0.37 0.54 0.55 0.59 0.60 0.70 0.75 0.65 0.53 0.33 0.46 0.72 0.67 0.67 0.79 0.81 0.70 0.69 0.81 0.86 1.02 1.17 1.39
0.57 0.56 0.54 0.53 0.51 0.50 0.49 0.49 0.48 0.49 0.52 0.50 0.48 0.47 0.45 0.46 0.26 0.19 0.35 0.30 0.27 0.29 0.34 0.54 0.57 0.52 0.58 0.73 0.64 0.59 0.42 0.32 0.40 0.65 0.71 0.73 0.95 1.02 0.93 0.78 0.76 0.76 0.91 1.10 1.22
0.56 0.56 0.54 0.53 0.51 0.48 0.47 0.48 0.48 0.50 0.55 0.50 0.49 0.48 0.46 0.41 0.38 0.49 0.35 0.31 0.24 0.23 0.33 0.55 0.51 0.49 0.56 0.57 0.58 0.51 0.38 0.36 0.36 0.63 0.71 0.77 0.85 0.91 0.97 0.89 0.89 0.94 1.02 1.08 1.14
0.54 0.54 0.53 0.53 0.51 0.48 0.45 0.46 0.48 0.54 0.58 0.52 0.51 0.48 0.40 0.26 0.40 0.63 0.44 0.30 0.21 0.23 0.33 0.47 0.44 0.52 0.59 0.54 0.52 0.50 0.34 0.37 0.34 0.67 0.72 0.74 0.75 0.66 0.71 0.85 0.94 0.97 1.03 1.07 1.14
0.52 0.52 0.52 0.51 0.50 0.48 0.44 0.44 0.47 0.62 0.63 0.55 0.52 0.48 0.32 0.31 0.66 0.61 0.29 0.20 0.18 0.22 0.39 0.36 0.41 0.57 0.64 0.51 0.50 0.48 0.41 0.37 0.34 0.53 0.63 0.74 0.72 0.74 0.71 0.85 0.87 0.92 0.99 1.08 1.13
0.51 0.49 0.49 0.49 0.49 0.47 0.44 0.42 0.46 0.61 0.60 0.54 0.50 0.44 0.42 0.46 0.65 0.51 0.28 0.18 0.22 0.26 0.30 0.35 0.36 0.53 0.58 0.50 0.54 0.37 0.38 0.30 0.38 0.45 0.65 0.69 0.87 0.81 0.75 0.82 0.80 0.87 0.97 1.04 1.10
0.50 0.47 0.46 0.46 0.47 0.46 0.44 0.40 0.46 0.60 0.59 0.55 0.51 0.47 0.39 0.53 0.58 0.33 0.29 0.21 0.26 0.28 0.27 0.33 0.36 0.57 0.58 0.60 0.43 0.41 0.47 0.30 0.38 0.48 0.62 0.74 0.91 0.97 0.87 0.78 0.82 0.89 0.92 0.99 1.06
0.48 0.47 0.45 0.43 0.44 0.45 0.43 0.39 0.48 0.61 0.64 0.59 0.43 0.40 0.35 0.52 0.40 0.27 0.27 0.22 0.24 0.28 0.30 0.30 0.45 0.50 0.56 0.47 0.38 0.40 0.39 0.37 0.35 0.46 0.53 0.63 0.73 1.03 1.05 0.89 0.82 0.90 0.90 0.91 0.99
0.48 0.46 0.44 0.42 0.42 0.43 0.41 0.41 0.56 0.60 0.65 0.60 0.53 0.43 0.40 0.38 0.41 0.27 0.24 0.22 0.22 0.24 0.27 0.32 0.37 0.37 0.46 0.44 0.39 0.37 0.38 0.42 0.36 0.37 0.42 0.55 0.66 1.05 1.08 1.00 0.85 0.92 0.89 0.93 0.92
0.46 0.46 0.43 0.40 0.40 0.42 0.41 0.42 0.57 0.58 0.57 0.34 0.35 0.27 0.45 0.46 0.47 0.28 0.27 0.24 0.22 0.21 0.19 0.28 0.24 0.26 0.40 0.46 0.49 0.45 0.37 0.42 0.38 0.36 0.39 0.53 0.64 0.76 0.87 0.96 0.88 0.87 0.89 0.94 1.00
0.46 0.45 0.43 0.40 0.38 0.39 0.42 0.33 0.55 0.54 0.35 0.47 0.45 0.38 0.49 0.50 0.35 0.28 0.29 0.22 0.20 0.17 0.20 0.23 0.19 0.27 0.38 0.43 0.41 0.41 0.35 0.34 0.36 0.39 0.34 0.52 0.63 0.76 0.75 0.85 0.93 1.11 0.98 0.94 1.06
0.47 0.45 0.43 0.40 0.36 0.39 0.41 0.40 0.41 0.44 0.33 0.32 0.37 0.39 0.32 0.50 0.33 0.27 0.26 0.22 0.18 0.17 0.18 0.22 0.22 0.28 0.30 0.34 0.35 0.35 0.33 0.33 0.35 0.39 0.34 0.38 0.42 0.57 0.71 0.76 1.00 1.06 1.12 0.97 1.06
0.48 0.46 0.43 0.39 0.30 0.40 0.32 0.51 0.46 0.48 0.23 0.20 0.25 0.34 0.32 0.42 0.31 0.33 0.29 0.21 0.23 0.17 0.20 0.23 0.34 0.29 0.27 0.27 0.28 0.27 0.35 0.41 0.41 0.36 0.28 0.35 0.30 0.53 0.68 0.70 0.88 0.95 1.01 1.00 1.13
0.46 0.46 0.44 0.43 0.31 0.31 0.33 0.39 0.47 0.45 0.14 0.16 0.23 0.38 0.35 0.29 0.32 0.33 0.30 0.22 0.27 0.20 0.22 0.24 0.27 0.30 0.24 0.25 0.28 0.33 0.39 0.38 0.38 0.38 0.35 0.40 0.33 0.40 0.49 0.56 0.69 0.85 0.91 0.92 1.04
0.48 0.44 0.46 0.34 0.42 0.33 0.39 0.38 0.43 0.27 0.14 0.26 0.28 0.27 0.26 0.27 0.31 0.35 0.27 0.25 0.32 0.32 0.29 0.30 0.32 0.35 0.31 0.29 0.33 0.40 0.41 0.39 0.32 0.34 0.29 0.38 0.42 0.39 0.45 0.56 0.70 0.81 0.87 0.94 1.07
0.52 0.44 0.42 0.42 0.23 0.38 0.37 0.29 0.25 0.21 0.24 0.23 0.30 0.28 0.24 0.23 0.28 0.32 0.28 0.23 0.24 0.24 0.25 0.29 0.31 0.35 0.30 0.29 0.34 0.35 0.36 0.29 0.24 0.24 0.24 0.32 0.33 0.38 0.54 0.62 0.67 0.73 0.78 0.91 1.04
0.59 0.45 0.39 0.37 0.33 0.38 0.31 0.27 0.19 0.24 0.24 0.28 0.32 0.31 0.23 0.24 0.27 0.28 0.32 0.24 0.26 0.28 0.29 0.25 0.24 0.34 0.34 0.30 0.32 0.31 0.33 0.27 0.29 0.35 0.36 0.39 0.33 0.37 0.49 0.53 0.55 0.63 0.66 0.77 1.02
0.58 0.49 0.39 0.42 0.42 0.34 0.27 0.19 0.18 0.22 0.26 0.27 0.34 0.30 0.27 0.24 0.27 0.29 0.29 0.29 0.26 0.27 0.26 0.29 0.26 0.37 0.30 0.31 0.37 0.34 0.28 0.34 0.35 0.36 0.39 0.45 0.47 0.50 0.48 0.44 0.42 0.46 0.52 0.52 0.71
0.47 0.47 0.43 0.40 0.42 0.30 0.22 0.17 0.19 0.25 0.35 0.39 0.32 0.33 0.28 0.24 0.23 0.26 0.29 0.33 0.30 0.30 0.33 0.33 0.30 0.34 0.33 0.31 0.35 0.35 0.37 0.27 0.32 0.27 0.29 0.36 0.40 0.38 0.42 0.44 0.47 0.47 0.56 0.57 0.56
0.46 0.40 0.49 0.43 0.44 0.26 0.16 0.17 0.20 0.23 0.34 0.39 0.38 0.34 0.34 0.30 0.25 0.26 0.27 0.32 0.33 0.32 0.32 0.33 0.35 0.36 0.35 0.29 0.27 0.31 0.34 0.38 0.34 0.31 0.26 0.32 0.42 0.59 0.55 0.53 0.53 0.53 0.60 0.71 0.80
0.40 0.30 0.51 0.58 0.35 0.27 0.18 0.18 0.21 0.22 0.23 0.33 0.44 0.41 0.37 0.37 0.32 0.26 0.27 0.31 0.36 0.33 0.30 0.30 0.33 0.33 0.35 0.37 0.36 0.35 0.34 0.39 0.33 0.32 0.38 0.42 0.46 0.58 0.56 0.55 0.53 0.57 0.54 0.53 0.77
0.41 0.35 0.52 0.59 0.33 0.27 0.24 0.21 0.20 0.20 0.21 0.26 0.36 0.44 0.43 0.40 0.39 0.34 0.29 0.36 0.37 0.35 0.32 0.34 0.29 0.29 0.35 0.38 0.37 0.31 0.34 0.33 0.32 0.35 0.32 0.34 0.41 0.57 0.56 0.55 0.58 0.56 0.59 0.58 0.51
0.44 0.31 0.36 0.43 0.52 0.38 0.28 0.21 0.20 0.21 0.20 0.23 0.29 0.40 0.38 0.38 0.45 0.43 0.34 0.39 0.42 0.37 0.37 0.39 0.32 0.27 0.29 0.37 0.39 0.36 0.31 0.33 0.36 0.32 0.31 0.37 0.52 0.63 0.61 0.59 0.63 0.66 0.66 0.58 0.63
0.46 0.35 0.46 0.44 0.36 0.46 0.36 0.33 0.28 0.21 0.21 0.22 0.24 0.30 0.33 0.33 0.38 0.41 0.45 0.43 0.43 0.42 0.38 0.35 0.33 0.31 0.31 0.38 0.42 0.40 0.36 0.34 0.35 0.38 0.38 0.44 0.47 0.58 0.65 0.67 0.69 0.72 0.73 0.71 0.68
0.38 0.47 0.49 0.51 0.57 0.59 0.55 0.31 0.33 0.32 0.22 0.21 0.24 0.30 0.29 0.30 0.36 0.38 0.46 0.49 0.42 0.42 0.38 0.36 0.32 0.35 0.32 0.35 0.37 0.41 0.42 0.39 0.33 0.34 0.37 0.41 0.43 0.67 0.71 0.74 0.67 0.66 0.64 0.63 0.65
0.63 0.64 0.54 0.46 0.50 0.45 0.48 0.45 0.30 0.39 0.37 0.27 0.27 0.29 0.28 0.31 0.38 0.48 0.58 0.55 0.52 0.45 0.39 0.36 0.32 0.33 0.29 0.34 0.34 0.33 0.39 0.41 0.43 0.45 0.42 0.39 0.45 0.62 0.66 0.67 0.65 0.64 0.64 0.63 0.54

GFSSW_prec_pwat_147.txt.gz
Precipitable_Water
0.58 0.57 0.56 0.53 0.51 0.50 0.47 0.47 0.47 0.47 0.48 0.51 0.52 0.51 0.48 0.46 0.43 0.38 0.26 0.31 0.41 0.55 0.62 0.53 0.59 0.72 0.79 0.76 0.77 0.82 0.64 0.63 0.62 0.59 0.66 0.73 0.65 0.83 0.97 0.88 0.99 1.02 0.96 1.20 1.45
0.56 0.55 0.56 0.55 0.52 0.50 0.47 0.46 0.47 0.47 0.49 0.53 0.51 0.50 0.47 0.45 0.31 0.23 0.29 0.33 0.38 0.49 0.47 0.43 0.51 0.66 0.60 0.63 0.63 0.61 0.43 0.48 0.59 0.68 0.65 0.75 0.81 0.79 0.86 0.79 0.81 0.91 1.16 1.24 1.33
0.55 0.54 0.54 0.54 0.54 0.51 0.47 0.46 0.46 0.46 0.50 0.54 0.51 0.49 0.47 0.45 0.24 0.15 0.30 0.29 0.33 0.38 0.40 0.43 0.61 0.64 0.57 0.60 0.60 0.60 0.37 0.42 0.65 0.66 0.75 0.81 0.88 0.99 0.93 0.79 0.79 0.78 1.00 1.18 1.25
0.52 0.52 0.52 0.52 0.52 0.51 0.48 0.45 0.45 0.46 0.54 0.57 0.51 0.51 0.47 0.40 0.26 0.48 0.44 0.32 0.31 0.28 0.34 0.38 0.63 0.59 0.52 0.50 0.59 0.49 0.39 0.36 0.54 0.79 0.79 0.78 0.84 0.82 0.87 0.86 0.90 1.05 1.15 1.18 1.15
0.51 0.50 0.49 0.49 0.50 0.49 0.48 0.44 0.44 0.46 0.60 0.60 0.53 0.51 0.39 0.24 0.33 0.55 0.46 0.38 0.28 0.21 0.29 0.39 0.58 0.52 0.47 0.54 0.55 0.51 0.39 0.35 0.57 0.81 0.86 0.81 0.83 0.71 0.73 0.91 0.96 1.00 1.09 1.13 1.12
0.50 0.48 0.47 0.47 0.47 0.47 0.47 0.44 0.42 0.46 0.60 0.61 0.54 0.50 0.28 0.17 0.63 0.64 0.46 0.28 0.22 0.18 0.29 0.43 0.55 0.50 0.48 0.51 0.50 0.43 0.39 0.35 0.56 0.77 0.83 0.73 0.74 0.72 0.78 0.86 0.88 0.97 0.98 1.11 1.13
0.50 0.48 0.46 0.45 0.45 0.45 0.45 0.44 0.41 0.46 0.60 0.58 0.53 0.44 0.30 0.27 0.70 0.59 0.34 0.21 0.18 0.19 0.31 0.49 0.53 0.38 0.41 0.51 0.55 0.45 0.37 0.33 0.36 0.70 0.76 0.87 0.74 0.73 0.85 0.84 0.82 0.86 0.97 1.07 1.13
0.50 0.49 0.46 0.44 0.43 0.44 0.43 0.42 0.39 0.47 0.60 0.57 0.51 0.43 0.24 0.51 0.54 0.48 0.29 0.19 0.19 0.24 0.35 0.45 0.45 0.36 0.49 0.60 0.52 0.38 0.39 0.27 0.37 0.54 0.81 0.73 0.65 0.86 0.90 0.83 0.84 0.88 0.91 1.03 1.09
0.47 0.48 0.46 0.43 0.42 0.42 0.42 0.39 0.40 0.48 0.62 0.60 0.42 0.42 0.24 0.53 0.40 0.39 0.28 0.18 0.20 0.25 0.32 0.37 0.35 0.36 0.51 0.49 0.46 0.42 0.38 0.35 0.36 0.47 0.69 0.65 0.59 0.92 1.10 0.88 0.80 0.87 0.88 0.92 1.01
0.46 0.45 0.46 0.44 0.41 0.42 0.41 0.37 0.49 0.52 0.62 0.64 0.52 0.39 0.34 0.35 0.40 0.34 0.27 0.23 0.22 0.23 0.26 0.28 0.31 0.35 0.45 0.45 0.35 0.37 0.40 0.45 0.37 0.45 0.56 0.59 0.64 0.84 0.96 0.94 0.89 0.84 0.86 0.87 0.88
0.46 0.44 0.44 0.43 0.41 0.41 0.41 0.32 0.49 0.63 0.61 0.37 0.31 0.26 0.39 0.51 0.47 0.29 0.21 0.20 0.21 0.22 0.19 0.27 0.28 0.26 0.37 0.47 0.50 0.50 0.48 0.43 0.42 0.42 0.46 0.57 0.66 0.81 0.87 0.94 0.98 0.91 0.80 0.82 0.88
0.46 0.44 0.43 0.41 0.39 0.38 0.40 0.26 0.44 0.43 0.30 0.44 0.42 0.41 0.44 0.51 0.38 0.29 0.23 0.18 0.17 0.15 0.21 0.22 0.21 0.26 0.44 0.45 0.46 0.45 0.42 0.41 0.45 0.39 0.41 0.52 0.54 0.70 0.90 0.96 1.02 1.02 0.91 0.79 0.85
0.46 0.45 0.43 0.40 0.36 0.39 0.40 0.39 0.45 0.44 0.25 0.31 0.33 0.37 0.42 0.43 0.39 0.28 0.23 0.20 0.17 0.15 0.17 0.17 0.19 0.24 0.37 0.34 0.36 0.39 0.38 0.37 0.35 0.37 0.38 0.43 0.50 0.69 0.90 1.03 1.06 1.05 1.00 0.95 0.89
0.50 0.45 0.44 0.40 0.28 0.36 0.34 0.40 0.43 0.48 0.24 0.17 0.23 0.27 0.39 0.46 0.38 0.39 0.27 0.22 0.20 0.15 0.17 0.17 0.22 0.26 0.27 0.27 0.32 0.31 0.38 0.36 0.35 0.34 0.29 0.38 0.31 0.62 0.71 0.82 0.93 0.93 0.97 1.04 1.03
0.57 0.50 0.44 0.44 0.32 0.30 0.35 0.40 0.45 0.41 0.13 0.17 0.14 0.28 0.31 0.29 0.36 0.35 0.32 0.24 0.18 0.16 0.17 0.15 0.22 0.27 0.27 0.26 0.30 0.27 0.34 0.34 0.39 0.40 0.36 0.33 0.30 0.50 0.63 0.69 0.77 0.84 0.90 1.04 1.08
0.58 0.55 0.51 0.36 0.39 0.32 0.40 0.41 0.42 0.24 0.14 0.18 0.23 0.21 0.25 0.27 0.29 0.35 0.29 0.29 0.23 0.22 0.21 0.17 0.24 0.29 0.30 0.31 0.28 0.29 0.33 0.37 0.36 0.35 0.28 0.34 0.34 0.34 0.51 0.61 0.70 0.81 0.92 1.02 1.09
0.53 0.55 0.52 0.46 0.25 0.34 0.33 0.31 0.22 0.18 0.22 0.19 0.23 0.26 0.27 0.25 0.23 0.31 0.26 0.23 0.17 0.17 0.19 0.24 0.25 0.30 0.32 0.31 0.29 0.32 0.34 0.31 0.27 0.24 0.23 0.34 0.34 0.37 0.47 0.62 0.70 0.77 0.89 0.92 1.07
0.54 0.50 0.51 0.47 0.37 0.36 0.32 0.23 0.16 0.20 0.16 0.24 0.31 0.31 0.28 0.27 0.24 0.27 0.27 0.22 0.19 0.20 0.23 0.21 0.19 0.28 0.32 0.29 0.26 0.30 0.33 0.30 0.25 0.27 0.34 0.42 0.31 0.40 0.54 0.61 0.69 0.72 0.85 0.91 1.01
0.58 0.45 0.42 0.48 0.43 0.38 0.28 0.16 0.16 0.18 0.20 0.20 0.34 0.33 0.30 0.29 0.25 0.26 0.30 0.24 0.23 0.20 0.20 0.22 0.22 0.33 0.35 0.36 0.28 0.29 0.28 0.36 0.34 0.39 0.36 0.38 0.46 0.51 0.54 0.55 0.58 0.63 0.70 0.80 0.98
0.51 0.45 0.36 0.48 0.50 0.35 0.24 0.16 0.17 0.22 0.23 0.28 0.32 0.34 0.34 0.30 0.27 0.26 0.27 0.32 0.28 0.28 0.27 0.26 0.26 0.32 0.35 0.37 0.32 0.31 0.39 0.27 0.30 0.25 0.26 0.34 0.41 0.44 0.49 0.49 0.53 0.56 0.56 0.62 0.75
0.47 0.39 0.34 0.57 0.58 0.35 0.17 0.17 0.17 0.21 0.22 0.24 0.32 0.33 0.38 0.39 0.33 0.26 0.27 0.29 0.37 0.33 0.29 0.26 0.30 0.31 0.37 0.31 0.27 0.28 0.31 0.33 0.31 0.31 0.26 0.29 0.41 0.62 0.54 0.55 0.56 0.59 0.67 0.67 0.74
0.41 0.32 0.46 0.52 0.40 0.39 0.24 0.19 0.20 0.19 0.22 0.21 0.31 0.33 0.35 0.39 0.41 0.31 0.26 0.30 0.36 0.38 0.31 0.27 0.31 0.28 0.33 0.40 0.36 0.33 0.30 0.34 0.31 0.30 0.34 0.37 0.38 0.58 0.59 0.60 0.63 0.67 0.66 0.66 0.74
0.36 0.35 0.47 0.47 0.31 0.35 0.39 0.29 0.21 0.19 0.19 0.19 0.24 0.31 0.37 0.37 0.40 0.42 0.38 0.37 0.36 0.37 0.33 0.33 0.29 0.26 0.30 0.37 0.37 0.32 0.32 0.33 0.36 0.39 0.32 0.30 0.37 0.58 0.56 0.58 0.63 0.62 0.62 0.57 0.69
0.36 0.30 0.40 0.44 0.44 0.41 0.40 0.36 0.28 0.25 0.21 0.20 0.24 0.31 0.33 0.35 0.45 0.41 0.41 0.43 0.42 0.37 0.39 0.39 0.30 0.28 0.26 0.32 0.36 0.32 0.33 0.34 0.35 0.31 0.31 0.32 0.40 0.49 0.52 0.55 0.60 0.64 0.67 0.67 0.60
0.40 0.30 0.46 0.37 0.40 0.43 0.45 0.45 0.36 0.29 0.25 0.23 0.21 0.29 0.27 0.29 0.39 0.38 0.41 0.44 0.44 0.40 0.41 0.39 0.30 0.31 0.30 0.34 0.41 0.38 0.36 0.37 0.32 0.31 0.31 0.33 0.39 0.48 0.57 0.60 0.62 0.64 0.69 0.75 0.79
0.34 0.37 0.51 0.49 0.49 0.47 0.46 0.47 0.46 0.40 0.33 0.28 0.21 0.23 0.26 0.25 0.31 0.36 0.40 0.43 0.44 0.49 0.39 0.42 0.32 0.33 0.34 0.34 0.38 0.36 0.43 0.42 0.38 0.35 0.35 0.39 0.42 0.59 0.64 0.76 0.72 0.74 0.75 0.74 0.74
0.58 0.57 0.53 0.47 0.49 0.47 0.45 0.47 0.49 0.47 0.36 0.35 0.34 0.24 0.24 0.25 0.31 0.41 0.46 0.47 0.49 0.52 0.51 0.41 0.36 0.33 0.28 0.34 0.36 0.34 0.37 0.42 0.44 0.43 0.39 0.35 0.46 0.60 0.64 0.67 0.69 0.69 0.70 0.70 0.70